SCP
-0 -0 -0 -0 -0 -0 -0 -0 0 -0 -0 -0 -0 -0 -0 -0 -0 -0 -0 -0 -0 -0 -0 -0 -0 -0 -0 -0 -0 -0 -0 -0 -0 -0 -0 -0 -0 -0 -0 -0 -0 -0 -0
0 -0 -0 -0 -0 -0 -0 0 0 -0 -0 -0 -0 -0 -0 -0 -0 -0 -0 -0 -0 -0 -0 -0 -0 -0 -0 -0 -0 -0 -0 -0 -0 -0 -0 -0 -0 -0 -0 -0 -0 -0 -0
-0 0 0 0 -0 -0 -0 -0 -0 -0 -0 -0 -0 -0 -0 -0 -0 -0 -0 -0 -0 -0 -0 -0 -0 -0 -0 -0 -0 -0 -0 -0 -0 -0 -0 -0 -0 -0 -0 -0 -0 -0 -0
0 0 0 -0 -0 -0 -0 -0 -0 -0 -0 -0 -0 -0 -0 -0 -0 -0 -0 -0 -0 -0 -0 -0 -0 -0 -0 -0 -0 -0 -0 -0 -0 -0 0 0 0 -0 -0 -0 -0 -0 -0
0 0 0 -0 0 -0 -0 -0 -0 -0 -0 -0 -0 -0 -0 -0 -0 -0 -0 -0 -0 -0 -0 -0 -0 -0 -0 -0 -0 -0 -0 -0 -0 0 0 0 -0 -0 -0 -0 -0 -0 -0
0 0 0 0 0 -0 -0 -0 -0 -0 -0 -0 -0 -0 -0 -0 -0 -0 -0 -0 -0 -0 -0 -0 -0 -0 -0 -0 -0 -0 -0 -0 0 0 0 -0 -0 -0 -0 -0 -0 0 0
0 0 0 0 0 -0 -0 0 -0 -0 -0 -0 -0 -0 -0 -0 -0 -0 -0 -0 -0 -0 -0 -0 -0 -0 -0 -0 -0 -0 -0 0 -0 0 0 0 0 -0 -0 0 0 0 0
0 0 0 0 0 0 -0 0 -0 -0 -0 -0 -0 -0 -0 -0 -0 -0 -0 -0 -0 -0 -0 -0 -0 -0 -0 -0 -0 -0 -0 0 -0 0 0 -0 0 -0 -0 0 0 0 0
0 0 0 0 0 0 -0 -0 0 -0 -0 -0 -0 -0 -0 -0 -0 -0 -0 -0 -0 -0 -0 -0 -0 -0 -0 -0 -0 -0 0 0 -0 0 0 -0 0 0 0 0 0 0 0
0 0 0 0 0 0 0 -0 0 -0 -0 -0 -0 -0 0 0 0 -0 0 -0 -0 -0 -0 -0 -0 -0 -0 -0 -0 -0 0 -0 -0 -0 0 0 0 0 0 0 0 0 0
0 0 0 0 0 0 0 0 -0 -0 -0 -0 -0 -0 0 0 0 0 0 0 0 -0 0 -0 -0 -0 -0 -0 -0 0 0 0 0 0 0 -0 0 0 0 0 0 0 0
0 0 0 0 0 0 0 0 0 -0 -0 0 0 0 0 0 0 0 0 0 0 0 0 0 0 0 0 0 0 0 0 0 0 0 0 0 0 0 0 0 0 0 0
0 0 0 0 0 0 0 0 0 0 0 0 -0 0 0 0 0 0 0 0 0 0 0 0 0 0 0 0 0 0 0 0 0 0 0 0 0 0 0 0 0 0 0
0 0 0 0 0 0 0 0 0 0 0 0 0 -0 0 0 0 0 0 0 0 0 0 0 0 0 0 0 0 0 0 0 0 0 0 0 0 0 0 0 0 0 0
0 0 0 0 0 0 0 0 0 0 0 0 -0 -0 -0 -0 -0 0 0 0 0 0 0 0 0 0 0 0 0 0 0 0 0 0 0 0 0 0 0 0 0 0 0
0 0 0 0 0 0 0 0 0 0 0 0 -0 -0 -0 -0 -0 0 0 0 0 0 0 0 0 0 0 0 0 0 0 0 0 0 0 0 0 0 0 0 0 0 0
0 0 0 0 0 0 0 0 0 0 0 0 -0 -0 -0 -0 -0 0 0 0 0 0 0 0 0 0 0 0 0 0 0 0 0 0 0 0 0 0 0 0 0 0 0
0 0 0 0 0 0 0 0 0 0 0 0 0 0 -0 -0 0 0 0 0 0 0 0 0 0 0 0 0 0 0 0 0 0 0 0 0 0 0 0 0 0 0 0
0 0 0 0 0 0 0 0 0 0 0 0 0 0 0 0 0 0 0 0 0 0 0 0 0 0 0 0 0 0 0 0 0 0 0 0 0 0 0 0 0 0 0
0 0 0 0 0 0 0 0 0 0 0 0 0 0 0 0 0 0 0 0 0 0 0 0 0 0 0 0 0 0 0 0 0 0 0 0 0 0 0 0 0 0 0
0 0 0 0 0 0 0 0 0 0 0 0 0 0 0 0 0 0 0 0 0 0 0 0 0 0 0 0 0 0 0 0 0 0 0 0 0 0 0 0 0 0 0
0 0 0 0 0 0 0 0 0 0 0 0 0 0 0 0 0 0 0 0 0 0 0 0 0 0 0 0 0 0 0 0 0 0 0 0 0 0 0 0 0 0 0
0 0 0 0 0 0 0 0 0 0 0 0 0 0 0 0 0 0 0 0 0 0 0 0 0 0 0 0 0 0 0 0 0 0 0 0 0 0 0 0 0 0 0
0 0 0 0 0 0 0 0 0 0 0 0 0 0 0 0 0 0 0 0 0 0 0 0 0 0 0 0 0 0 0 0 0 0 0 0 0 0 0 0 0 0 0
0 0 0 0 0 0 0 0 0 0 0 0 0 0 0 0 0 0 0 0 0 0 0 0 0 0 0 0 0 0 0 0 0 0 0 0 0 0 0 0 0 0 0
0 0 0 0 0 0 0 0 0 0 0 0 0 0 0 0 0 0 0 0 0 0 0 0 0 0 0 0 0 0 0 0 0 0 0 0 0 0 0 0 0 0 0
Wind_Speed_500mb
35 42 39 40 32 32 23 13 9 29 35 28 27 34 35 34 35 33 33 33 33 33 32 35 33 39 37 34 31 31 29 30 37 36 39 35 41 35 37 40 39 39 37
38 48 43 39 33 32 23 12 10 35 35 31 30 33 32 34 35 32 33 33 34 33 33 34 37 39 36 39 30 31 30 28 41 38 37 29 36 35 35 37 38 36 34
44 49 40 35 38 33 22 12 10 35 34 30 32 31 34 34 34 32 33 33 33 33 33 35 35 36 35 33 36 30 32 35 38 38 37 40 38 32 33 36 36 33 37
49 49 40 35 40 36 23 9 8 34 34 31 31 30 34 32 33 31 32 33 32 32 33 33 33 35 35 36 32 27 32 36 40 38 35 36 34 27 33 33 35 36 35
53 49 41 41 44 35 22 13 10 34 32 35 32 33 32 33 31 32 32 33 33 32 32 31 30 32 34 36 31 25 31 36 37 37 36 36 29 28 31 32 32 33 35
53 53 44 48 42 33 26 18 13 32 33 33 33 30 33 32 32 33 32 32 32 31 31 30 29 32 28 29 36 18 28 36 38 34 34 33 24 28 26 30 29 31 31
59 50 42 46 40 34 29 18 14 19 33 32 33 32 34 31 32 32 31 31 31 31 31 30 30 29 29 26 24 27 27 31 39 30 34 24 18 25 22 27 28 28 28
58 50 50 48 39 34 28 19 18 17 35 34 34 34 30 31 31 30 30 30 30 30 29 29 29 28 26 25 22 24 27 29 31 25 28 28 25 23 19 26 24 24 26
53 52 54 47 41 34 30 24 21 25 34 33 33 31 31 31 30 29 29 28 28 27 27 27 27 26 24 24 23 22 24 26 23 25 26 31 24 19 19 21 21 21 19
51 56 55 52 43 36 31 27 24 31 38 36 35 32 32 30 29 27 27 26 26 25 24 24 23 22 21 24 23 20 21 22 20 20 21 31 19 17 17 17 16 16 16
51 59 62 55 46 40 35 31 26 27 39 40 36 32 34 31 28 26 24 23 22 22 20 20 20 19 17 18 18 16 17 16 16 15 13 23 15 13 12 11 13 12 12
60 65 70 62 54 46 39 35 29 27 31 34 34 34 33 31 28 25 22 21 20 19 17 15 15 13 13 13 12 12 12 11 9 9 8 9 16 10 6 7 8 8 7
60 68 77 70 62 54 45 40 35 32 29 30 37 36 34 32 29 28 25 22 19 17 14 11 9 8 7 7 7 7 6 5 4 3 3 3 5 7 8 2 2 3 4
64 63 74 72 69 63 47 47 42 38 33 36 41 38 34 33 30 28 26 23 20 18 16 13 11 8 5 3 2 1 1 2 3 3 4 5 4 5 4 4 3 2 5
66 65 67 72 72 67 61 54 49 44 39 37 44 39 35 34 30 28 27 25 23 20 18 16 14 12 11 10 9 9 9 9 10 11 11 11 11 11 11 11 11 10 9
71 70 65 65 71 71 69 59 50 49 43 44 46 43 36 33 32 31 29 27 26 24 23 21 19 18 18 17 17 16 17 17 17 18 19 18 18 18 18 17 17 17 17
72 71 67 62 61 72 72 63 55 51 48 45 48 45 42 38 37 35 33 30 28 27 27 25 25 24 24 24 24 24 25 25 25 26 26 26 26 25 25 25 24 23 23
68 73 67 63 62 63 67 65 60 52 45 43 44 46 46 44 42 38 36 32 31 31 30 30 30 30 30 30 31 31 32 33 32 33 34 33 33 33 32 32 31 30 29
65 68 69 66 66 63 60 64 64 57 52 45 42 44 48 48 46 42 38 35 36 35 35 34 35 35 34 34 36 37 39 39 38 40 40 39 40 40 38 38 38 36 36
63 62 64 66 67 64 60 62 65 64 59 53 48 43 46 48 48 46 42 40 39 38 37 37 37 37 38 38 41 43 43 43 44 46 44 44 42 42 41 41 41 40 41
66 68 66 70 70 71 70 72 73 73 68 62 56 48 46 49 50 48 45 44 43 41 37 39 40 40 40 39 44 45 43 43 44 42 41 39 37 36 37 33 38 42 44
71 71 71 69 72 75 77 74 71 67 64 58 52 52 51 49 51 49 47 46 45 43 42 42 42 41 42 39 41 44 31 34 32 15 26 32 29 34 34 35 38 40 43
77 77 75 71 72 77 78 76 73 67 65 64 63 58 54 51 51 49 46 46 46 46 44 43 43 44 42 41 40 34 18 12 38 42 25 36 32 30 33 37 44 44 44
80 71 74 73 71 74 76 77 76 75 72 66 60 52 49 49 49 47 46 45 46 45 46 43 43 45 46 44 43 45 45 48 30 29 29 24 43 46 40 38 46 47 47
75 74 74 73 70 72 73 76 75 73 68 64 54 51 50 48 47 45 46 45 46 47 44 43 45 46 47 47 46 46 47 49 50 55 72 60 49 53 54 51 46 44 44
76 77 76 75 72 73 72 73 74 70 64 63 56 51 49 47 44 44 44 43 43 45 44 43 43 45 47 49 48 49 52 52 52 51 57 71 72 69 64 62 55 50 44
Wind_Direction_500mb
173 167 156 150 149 153 145 138 112 119 121 126 115 110 105 103 98 97 101 100 97 93 91 91 97 97 96 99 105 97 97 88 91 81 86 71 75 72 73 71 63 65 66
162 166 162 168 154 159 148 140 102 126 124 121 117 113 112 105 105 104 102 100 96 95 95 95 103 100 91 92 93 91 87 95 89 82 77 74 77 74 69 76 69 63 64
170 167 169 169 164 167 159 139 124 128 126 126 121 115 111 112 108 106 106 103 101 97 96 97 98 92 90 83 84 93 83 88 94 83 77 72 69 69 71 74 71 66 67
173 174 173 180 187 181 169 151 150 132 133 129 126 122 121 114 114 113 110 107 105 103 100 102 102 104 99 89 86 87 89 89 90 89 81 78 74 59 73 68 69 69 62
175 175 174 167 166 174 187 204 158 137 134 133 133 130 129 121 121 116 114 110 106 104 103 104 103 103 101 102 91 95 86 96 94 88 84 82 82 69 67 63 66 71 71
170 170 174 175 175 181 184 192 167 147 146 144 139 133 133 133 128 124 119 115 111 107 104 101 100 109 104 94 93 105 88 104 97 100 99 88 75 75 66 68 69 65 67
168 172 172 177 181 191 197 179 187 166 147 148 142 143 137 139 133 127 121 115 109 104 101 98 96 95 97 91 86 84 95 102 103 105 102 98 89 83 68 73 70 64 63
172 171 173 180 192 195 204 189 206 194 159 155 145 151 146 144 136 130 124 118 113 109 105 102 98 94 90 86 79 81 101 110 108 115 111 91 81 78 71 71 68 65 63
179 175 175 186 191 199 200 214 214 201 165 157 156 156 156 149 141 135 130 125 119 114 109 104 101 97 93 89 85 84 93 116 104 100 98 88 73 71 72 70 61 65 59
185 185 179 188 190 195 200 210 212 182 172 166 166 162 160 152 147 141 137 133 128 123 117 110 105 100 91 85 84 85 86 108 108 100 97 94 88 72 70 68 67 70 63
190 194 190 191 191 194 200 206 204 201 179 178 175 168 164 158 154 151 147 143 140 135 129 121 113 108 99 90 91 91 92 108 110 102 98 92 92 73 71 82 71 65 61
193 194 195 192 190 192 194 202 200 203 193 186 179 173 168 165 163 158 158 158 156 149 144 137 130 122 116 107 97 93 93 101 102 100 79 43 120 104 81 70 68 71 53
193 193 194 195 197 201 199 208 207 208 203 195 190 184 177 173 172 172 174 174 173 167 165 160 153 149 135 121 107 98 95 89 89 74 40 48 23 131 137 155 56 35 34
198 198 199 203 207 215 215 218 214 212 207 202 198 194 189 185 184 186 187 187 188 188 190 191 191 195 202 208 202 264 316 317 306 297 295 318 314 313 294 265 232 260 308
209 206 204 207 210 214 218 222 216 213 212 211 205 204 201 198 198 199 201 201 204 206 210 214 219 224 236 248 259 270 281 284 288 289 290 293 295 293 290 289 284 274 276
210 214 210 209 212 214 220 222 221 215 212 210 211 213 215 211 212 211 212 214 217 220 223 228 233 239 248 257 263 269 274 278 280 283 286 287 286 286 285 284 282 281 281
212 215 215 212 212 213 220 221 223 220 206 211 213 218 219 221 218 219 221 223 226 229 233 238 244 250 256 262 268 273 274 276 279 280 281 283 285 283 281 280 280 280 281
213 215 216 216 214 212 216 219 220 217 214 214 214 219 222 223 226 228 229 231 235 239 242 245 250 255 260 267 271 275 276 277 279 280 280 282 282 281 280 278 276 277 278
217 214 217 220 216 212 214 212 217 221 227 224 221 223 226 227 228 231 234 237 241 244 248 251 255 260 265 270 274 275 278 280 281 278 281 282 280 279 277 277 275 276 277
220 218 221 222 220 216 214 211 212 222 228 230 229 229 231 233 233 234 235 240 244 247 250 255 261 265 269 273 277 280 282 284 283 281 281 279 279 278 278 275 274 277 277
221 221 221 222 221 218 215 214 215 221 226 229 231 233 234 234 237 237 238 242 246 252 257 258 261 265 271 277 283 288 289 289 286 282 279 279 280 282 276 277 281 282 279
222 223 224 223 223 224 223 222 223 225 230 235 235 237 237 236 237 239 241 245 250 254 256 260 264 268 272 276 279 294 305 302 292 290 298 288 278 278 282 286 286 288 286
223 223 224 223 222 223 224 224 227 227 231 233 232 234 235 236 238 242 244 246 251 255 258 261 264 268 272 274 275 272 291 284 300 304 297 294 284 284 292 291 291 292 289
225 224 227 226 223 222 223 224 225 227 228 232 234 238 241 242 241 243 245 248 253 258 259 262 264 267 270 273 274 273 275 276 290 297 299 286 290 296 297 298 297 295 291
226 224 225 226 225 223 223 225 227 230 233 238 240 240 242 244 246 246 248 250 254 258 262 262 262 267 271 274 273 278 278 277 275 271 287 297 300 301 298 298 298 299 297
227 226 226 226 226 224 223 226 228 232 234 237 237 238 240 243 246 249 252 255 258 260 263 265 266 266 270 274 276 275 275 275 280 281 283 293 297 303 306 306 307 308 303
Wind_Speed_850mb
35 42 39 40 32 32 23 13 9 29 35 28 27 34 35 34 35 33 33 33 33 33 32 35 33 39 37 34 31 31 29 30 37 36 39 35 41 35 37 40 39 39 37
38 48 43 39 33 32 23 12 10 35 35 31 30 33 32 34 35 32 33 33 34 33 33 34 37 39 36 39 30 31 30 28 41 38 37 29 36 35 35 37 38 36 34
44 49 40 35 38 33 22 12 10 35 34 30 32 31 34 34 34 32 33 33 33 33 33 35 35 36 35 33 36 30 32 35 38 38 37 40 38 32 33 36 36 33 37
49 49 40 35 40 36 23 9 8 34 34 31 31 30 34 32 33 31 32 33 32 32 33 33 33 35 35 36 32 27 32 36 40 38 35 36 34 27 33 33 35 36 35
53 49 41 41 44 35 22 13 10 34 32 35 32 33 32 33 31 32 32 33 33 32 32 31 30 32 34 36 31 25 31 36 37 37 36 36 29 28 31 32 32 33 35
53 53 44 48 42 33 26 18 13 32 33 33 33 30 33 32 32 33 32 32 32 31 31 30 29 32 28 29 36 18 28 36 38 34 34 33 24 28 26 30 29 31 31
59 50 42 46 40 34 29 18 14 19 33 32 33 32 34 31 32 32 31 31 31 31 31 30 30 29 29 26 24 27 27 31 39 30 34 24 18 25 22 27 28 28 28
58 50 50 48 39 34 28 19 18 17 35 34 34 34 30 31 31 30 30 30 30 30 29 29 29 28 26 25 22 24 27 29 31 25 28 28 25 23 19 26 24 24 26
53 52 54 47 41 34 30 24 21 25 34 33 33 31 31 31 30 29 29 28 28 27 27 27 27 26 24 24 23 22 24 26 23 25 26 31 24 19 19 21 21 21 19
51 56 55 52 43 36 31 27 24 31 38 36 35 32 32 30 29 27 27 26 26 25 24 24 23 22 21 24 23 20 21 22 20 20 21 31 19 17 17 17 16 16 16
51 59 62 55 46 40 35 31 26 27 39 40 36 32 34 31 28 26 24 23 22 22 20 20 20 19 17 18 18 16 17 16 16 15 13 23 15 13 12 11 13 12 12
60 65 70 62 54 46 39 35 29 27 31 34 34 34 33 31 28 25 22 21 20 19 17 15 15 13 13 13 12 12 12 11 9 9 8 9 16 10 6 7 8 8 7
60 68 77 70 62 54 45 40 35 32 29 30 37 36 34 32 29 28 25 22 19 17 14 11 9 8 7 7 7 7 6 5 4 3 3 3 5 7 8 2 2 3 4
64 63 74 72 69 63 47 47 42 38 33 36 41 38 34 33 30 28 26 23 20 18 16 13 11 8 5 3 2 1 1 2 3 3 4 5 4 5 4 4 3 2 5
66 65 67 72 72 67 61 54 49 44 39 37 44 39 35 34 30 28 27 25 23 20 18 16 14 12 11 10 9 9 9 9 10 11 11 11 11 11 11 11 11 10 9
71 70 65 65 71 71 69 59 50 49 43 44 46 43 36 33 32 31 29 27 26 24 23 21 19 18 18 17 17 16 17 17 17 18 19 18 18 18 18 17 17 17 17
72 71 67 62 61 72 72 63 55 51 48 45 48 45 42 38 37 35 33 30 28 27 27 25 25 24 24 24 24 24 25 25 25 26 26 26 26 25 25 25 24 23 23
68 73 67 63 62 63 67 65 60 52 45 43 44 46 46 44 42 38 36 32 31 31 30 30 30 30 30 30 31 31 32 33 32 33 34 33 33 33 32 32 31 30 29
65 68 69 66 66 63 60 64 64 57 52 45 42 44 48 48 46 42 38 35 36 35 35 34 35 35 34 34 36 37 39 39 38 40 40 39 40 40 38 38 38 36 36
63 62 64 66 67 64 60 62 65 64 59 53 48 43 46 48 48 46 42 40 39 38 37 37 37 37 38 38 41 43 43 43 44 46 44 44 42 42 41 41 41 40 41
66 68 66 70 70 71 70 72 73 73 68 62 56 48 46 49 50 48 45 44 43 41 37 39 40 40 40 39 44 45 43 43 44 42 41 39 37 36 37 33 38 42 44
71 71 71 69 72 75 77 74 71 67 64 58 52 52 51 49 51 49 47 46 45 43 42 42 42 41 42 39 41 44 31 34 32 15 26 32 29 34 34 35 38 40 43
77 77 75 71 72 77 78 76 73 67 65 64 63 58 54 51 51 49 46 46 46 46 44 43 43 44 42 41 40 34 18 12 38 42 25 36 32 30 33 37 44 44 44
80 71 74 73 71 74 76 77 76 75 72 66 60 52 49 49 49 47 46 45 46 45 46 43 43 45 46 44 43 45 45 48 30 29 29 24 43 46 40 38 46 47 47
75 74 74 73 70 72 73 76 75 73 68 64 54 51 50 48 47 45 46 45 46 47 44 43 45 46 47 47 46 46 47 49 50 55 72 60 49 53 54 51 46 44 44
76 77 76 75 72 73 72 73 74 70 64 63 56 51 49 47 44 44 44 43 43 45 44 43 43 45 47 49 48 49 52 52 52 51 57 71 72 69 64 62 55 50 44
Wind_Direction_850mb
173 167 156 150 149 153 145 138 112 119 121 126 115 110 105 103 98 97 101 100 97 93 91 91 97 97 96 99 105 97 97 88 91 81 86 71 75 72 73 71 63 65 66
162 166 162 168 154 159 148 140 102 126 124 121 117 113 112 105 105 104 102 100 96 95 95 95 103 100 91 92 93 91 87 95 89 82 77 74 77 74 69 76 69 63 64
170 167 169 169 164 167 159 139 124 128 126 126 121 115 111 112 108 106 106 103 101 97 96 97 98 92 90 83 84 93 83 88 94 83 77 72 69 69 71 74 71 66 67
173 174 173 180 187 181 169 151 150 132 133 129 126 122 121 114 114 113 110 107 105 103 100 102 102 104 99 89 86 87 89 89 90 89 81 78 74 59 73 68 69 69 62
175 175 174 167 166 174 187 204 158 137 134 133 133 130 129 121 121 116 114 110 106 104 103 104 103 103 101 102 91 95 86 96 94 88 84 82 82 69 67 63 66 71 71
170 170 174 175 175 181 184 192 167 147 146 144 139 133 133 133 128 124 119 115 111 107 104 101 100 109 104 94 93 105 88 104 97 100 99 88 75 75 66 68 69 65 67
168 172 172 177 181 191 197 179 187 166 147 148 142 143 137 139 133 127 121 115 109 104 101 98 96 95 97 91 86 84 95 102 103 105 102 98 89 83 68 73 70 64 63
172 171 173 180 192 195 204 189 206 194 159 155 145 151 146 144 136 130 124 118 113 109 105 102 98 94 90 86 79 81 101 110 108 115 111 91 81 78 71 71 68 65 63
179 175 175 186 191 199 200 214 214 201 165 157 156 156 156 149 141 135 130 125 119 114 109 104 101 97 93 89 85 84 93 116 104 100 98 88 73 71 72 70 61 65 59
185 185 179 188 190 195 200 210 212 182 172 166 166 162 160 152 147 141 137 133 128 123 117 110 105 100 91 85 84 85 86 108 108 100 97 94 88 72 70 68 67 70 63
190 194 190 191 191 194 200 206 204 201 179 178 175 168 164 158 154 151 147 143 140 135 129 121 113 108 99 90 91 91 92 108 110 102 98 92 92 73 71 82 71 65 61
193 194 195 192 190 192 194 202 200 203 193 186 179 173 168 165 163 158 158 158 156 149 144 137 130 122 116 107 97 93 93 101 102 100 79 43 120 104 81 70 68 71 53
193 193 194 195 197 201 199 208 207 208 203 195 190 184 177 173 172 172 174 174 173 167 165 160 153 149 135 121 107 98 95 89 89 74 40 48 23 131 137 155 56 35 34
198 198 199 203 207 215 215 218 214 212 207 202 198 194 189 185 184 186 187 187 188 188 190 191 191 195 202 208 202 264 316 317 306 297 295 318 314 313 294 265 232 260 308
209 206 204 207 210 214 218 222 216 213 212 211 205 204 201 198 198 199 201 201 204 206 210 214 219 224 236 248 259 270 281 284 288 289 290 293 295 293 290 289 284 274 276
210 214 210 209 212 214 220 222 221 215 212 210 211 213 215 211 212 211 212 214 217 220 223 228 233 239 248 257 263 269 274 278 280 283 286 287 286 286 285 284 282 281 281
212 215 215 212 212 213 220 221 223 220 206 211 213 218 219 221 218 219 221 223 226 229 233 238 244 250 256 262 268 273 274 276 279 280 281 283 285 283 281 280 280 280 281
213 215 216 216 214 212 216 219 220 217 214 214 214 219 222 223 226 228 229 231 235 239 242 245 250 255 260 267 271 275 276 277 279 280 280 282 282 281 280 278 276 277 278
217 214 217 220 216 212 214 212 217 221 227 224 221 223 226 227 228 231 234 237 241 244 248 251 255 260 265 270 274 275 278 280 281 278 281 282 280 279 277 277 275 276 277
220 218 221 222 220 216 214 211 212 222 228 230 229 229 231 233 233 234 235 240 244 247 250 255 261 265 269 273 277 280 282 284 283 281 281 279 279 278 278 275 274 277 277
221 221 221 222 221 218 215 214 215 221 226 229 231 233 234 234 237 237 238 242 246 252 257 258 261 265 271 277 283 288 289 289 286 282 279 279 280 282 276 277 281 282 279
222 223 224 223 223 224 223 222 223 225 230 235 235 237 237 236 237 239 241 245 250 254 256 260 264 268 272 276 279 294 305 302 292 290 298 288 278 278 282 286 286 288 286
223 223 224 223 222 223 224 224 227 227 231 233 232 234 235 236 238 242 244 246 251 255 258 261 264 268 272 274 275 272 291 284 300 304 297 294 284 284 292 291 291 292 289
225 224 227 226 223 222 223 224 225 227 228 232 234 238 241 242 241 243 245 248 253 258 259 262 264 267 270 273 274 273 275 276 290 297 299 286 290 296 297 298 297 295 291
226 224 225 226 225 223 223 225 227 230 233 238 240 240 242 244 246 246 248 250 254 258 262 262 262 267 271 274 273 278 278 277 275 271 287 297 300 301 298 298 298 299 297
227 226 226 226 226 224 223 226 228 232 234 237 237 238 240 243 246 249 252 255 258 260 263 265 266 266 270 274 276 275 275 275 280 281 283 293 297 303 306 306 307 308 303